| time (UTC) | temp C | wind direction | speed KPH | gust KPH | rain 1hr cm | rain 24hr cm | rain mn cm | humidity % | barometer mb |
| 20260831092722 | 12 | 315 | 0.0 | 0.0 | 0.00 | 0.00 | 0.00 | 87 | 1023.4 |
| 20260831091724 | 12 | 315 | 0.0 | 0.0 | 0.00 | 0.00 | 0.00 | 86 | 1023.3 |
| 20260831090822 | 12 | 315 | 0.0 | 0.0 | 0.00 | 0.00 | 0.00 | 86 | 1023.3 |
| 20260831083922 | 13 | 315 | 0.0 | 0.0 | 0.00 | 0.00 | 0.00 | 87 | 1022.9 |
| 20260831082922 | 13 | 315 | 0.0 | 0.0 | 0.00 | 0.00 | 0.00 | 86 | 1023.1 |
| 20260831081921 | 13 | 315 | 0.0 | 0.0 | 0.00 | 0.00 | 0.00 | 86 | 1022.9 |
| 20260831075921 | 13 | 315 | 0.0 | 0.0 | 0.00 | 0.00 | 0.00 | 87 | 1022.7 |
| 20260831074923 | 13 | 315 | 0.0 | 0.0 | 0.00 | 0.00 | 0.00 | 88 | 1022.6 |
| 20260831073922 | 13 | 315 | 0.0 | 0.0 | 0.00 | 0.00 | 0.00 | 88 | 1022.8 |
| 20260831072823 | 13 | 315 | 0.0 | 0.0 | 0.00 | 0.00 | 0.00 | 87 | 1022.4 |
| 20260831070837 | 14 | 315 | 0.0 | 0.0 | 0.00 | 0.00 | 0.00 | 88 | 1022.5 |
| 20260831065921 | 14 | 315 | 0.0 | 0.0 | 0.00 | 0.00 | 0.00 | 88 | 1022.4 |
| 20260831063940 | 15 | 315 | 0.0 | 0.0 | 0.00 | 0.00 | 0.00 | 89 | 1022.4 |
| 20260831063024 | 15 | 315 | 0.0 | 0.0 | 0.00 | 0.00 | 0.00 | 89 | 1022.4 |
| 20260831062023 | 15 | 315 | 0.0 | 0.0 | 0.00 | 0.00 | 0.00 | 88 | 1022.4 |
| 20260831061023 | 15 | 315 | 0.0 | 0.0 | 0.00 | 0.00 | 0.00 | 89 | 1022.5 |
| 20260831055023 | 15 | 315 | 0.0 | 0.0 | 0.00 | 0.00 | 0.00 | 88 | 1022.5 |
| 20260831054040 | 16 | 315 | 0.0 | 0.0 | 0.00 | 0.00 | 0.00 | 87 | 1022.4 |
| 20260831052022 | 16 | 315 | 0.0 | 0.0 | 0.00 | 0.00 | 0.00 | 87 | 1022.3 |
| 20260831051939 | 16 | 315 | 0.0 | 0.0 | 0.00 | 0.00 | 0.00 | 86 | 1022.2 |
| 20260831051022 | 16 | 315 | 0.0 | 0.0 | 0.00 | 0.00 | 0.00 | 86 | 1021.9 |
| 20260831050021 | 17 | 315 | 0.0 | 0.0 | 0.00 | 0.00 | 0.00 | 85 | 1022.0 |
| 20260831045022 | 17 | 315 | 0.0 | 0.0 | 0.00 | 0.00 | 0.00 | 85 | 1021.9 |
| 20260831042138 | 17 | 337 | 0.0 | 0.0 | 0.00 | 0.00 | 0.00 | 83 | 1021.6 |
| 20260831040237 | 17 | 337 | 0.0 | 0.0 | 0.00 | 0.00 | 0.00 | 82 | 1021.7 |
| 20260831035321 | 18 | 337 | 0.0 | 0.0 | 0.00 | 0.00 | 0.00 | 80 | 1021.6 |
| 20260831034238 | 18 | 337 | 0.0 | 0.0 | 0.00 | 0.00 | 0.00 | 80 | 1021.6 |
| 20260831033323 | 18 | 353 | 1.6 | 3.2 | 0.00 | 0.00 | 0.00 | 80 | 1021.5 |
| 20260831030621 | 19 | 22 | 0.0 | 1.6 | 0.00 | 0.00 | 0.00 | 79 | 1021.7 |
| 20260831024622 | 19 | 337 | 1.6 | 4.8 | 0.00 | 0.00 | 0.00 | 78 | 1021.5 |
| 20260831022621 | 20 | 253 | 0.0 | 4.8 | 0.00 | 0.00 | 0.00 | 77 | 1021.2 |
| 20260831021621 | 20 | 272 | 0.0 | 3.2 | 0.00 | 0.00 | 0.00 | 77 | 1021.2 |
| 20260831021537 | 20 | 303 | 0.0 | 1.6 | 0.00 | 0.00 | 0.00 | 76 | 1021.2 |
| 20260831020624 | 20 | 329 | 3.2 | 4.8 | 0.00 | 0.00 | 0.00 | 75 | 1021.3 |
| 20260831015622 | 20 | 315 | 0.0 | 0.0 | 0.00 | 0.00 | 0.00 | 75 | 1021.2 |
| 20260831014622 | 20 | 294 | 3.2 | 11.3 | 0.00 | 0.00 | 0.00 | 76 | 1021.1 |
| 20260831013623 | 20 | 302 | 4.8 | 8.0 | 0.00 | 0.00 | 0.00 | 76 | 1021.1 |
| 20260831012722 | 20 | 335 | 0.0 | 3.2 | 0.00 | 0.00 | 0.00 | 76 | 1021.0 |
| 20260831011723 | 20 | 293 | 3.2 | 8.0 | 0.00 | 0.00 | 0.00 | 76 | 1020.9 |
| 20260831011622 | 20 | 287 | 6.4 | 9.7 | 0.00 | 0.00 | 0.00 | 76 | 1020.9 |
| 20260831010621 | 20 | 298 | 4.8 | 12.9 | 0.00 | 0.00 | 0.00 | 74 | 1020.8 |
| 20260831005623 | 20 | 247 | 3.2 | 6.4 | 0.00 | 0.00 | 0.00 | 75 | 1020.8 |
| 20260831005537 | 20 | 247 | 3.2 | 6.4 | 0.00 | 0.00 | 0.00 | 75 | 1020.7 |
| 20260831004540 | 21 | 276 | 4.8 | 11.3 | 0.00 | 0.00 | 0.00 | 74 | 1020.2 |
| 20260831003524 | 21 | 255 | 8.0 | 11.3 | 0.00 | 0.00 | 0.00 | 73 | 1020.2 |
| 20260831002523 | 21 | 270 | 8.0 | 17.7 | 0.00 | 0.00 | 0.00 | 73 | 1020.0 |
| 20260831002422 | 21 | 250 | 12.9 | 22.5 | 0.00 | 0.00 | 0.00 | 73 | 1019.9 |
| 20260831000521 | 21 | 235 | 6.4 | 11.3 | 0.00 | 0.00 | 0.00 | 71 | 1019.6 |
| 20260830235522 | 21 | 249 | 4.8 | 8.0 | 0.00 | 0.00 | 0.00 | 72 | 1019.6 |
| 20260830235422 | 21 | 271 | 6.4 | 16.1 | 0.00 | 0.00 | 0.00 | 71 | 1019.5 |
| 20260830233423 | 21 | 237 | 8.0 | 14.5 | 0.00 | 0.00 | 0.00 | 71 | 1019.5 |
| 20260830232420 | 21 | 267 | 3.2 | 12.9 | 0.00 | 0.00 | 0.00 | 70 | 1019.5 |
| 20260830231423 | 21 | 240 | 4.8 | 8.0 | 0.00 | 0.00 | 0.00 | 69 | 1019.5 |
| 20260830230438 | 21 | 270 | 1.6 | 8.0 | 0.00 | 0.00 | 0.00 | 69 | 1019.5 |
| 20260830230321 | 21 | 260 | 6.4 | 12.9 | 0.00 | 0.00 | 0.00 | 69 | 1019.5 |
| 20260830225323 | 21 | 247 | 0.0 | 3.2 | 0.00 | 0.00 | 0.00 | 68 | 1019.7 |
| 20260830224324 | 21 | 240 | 6.4 | 9.7 | 0.00 | 0.00 | 0.00 | 67 | 1019.5 |
| 20260830223323 | 22 | 233 | 3.2 | 14.5 | 0.00 | 0.00 | 0.00 | 66 | 1019.6 |
| 20260830222421 | 22 | 239 | 8.0 | 14.5 | 0.00 | 0.00 | 0.00 | 64 | 1019.9 |
| 20260830221422 | 22 | 219 | 3.2 | 8.0 | 0.00 | 0.00 | 0.00 | 64 | 1019.6 |
| 20260830220423 | 22 | 243 | 4.8 | 9.7 | 0.00 | 0.00 | 0.00 | 62 | 1019.5 |
| 20260830220338 | 22 | 241 | 4.8 | 8.0 | 0.00 | 0.00 | 0.00 | 62 | 1019.6 |
| 20260830215422 | 23 | 226 | 8.0 | 14.5 | 0.00 | 0.00 | 0.00 | 60 | 1019.6 |
| 20260830214521 | 23 | 182 | 1.6 | 4.8 | 0.00 | 0.00 | 0.00 | 62 | 1019.6 |
| 20260830213524 | 22 | 254 | 1.6 | 6.4 | 0.00 | 0.00 | 0.00 | 62 | 1019.8 |
| 20260830212620 | 22 | 248 | 4.8 | 11.3 | 0.00 | 0.00 | 0.00 | 63 | 1019.6 |
| 20260830205722 | 23 | 236 | 6.4 | 11.3 | 0.00 | 0.00 | 0.00 | 61 | 1019.9 |
| 20260830204721 | 23 | 215 | 3.2 | 8.0 | 0.00 | 0.00 | 0.00 | 61 | 1019.8 |
| 20260830203721 | 23 | 261 | 6.4 | 11.3 | 0.00 | 0.00 | 0.00 | 61 | 1019.9 |
| 20260830202721 | 23 | 230 | 4.8 | 9.7 | 0.00 | 0.00 | 0.00 | 61 | 1020.0 |
| 20260830200621 | 23 | 225 | 0.0 | 3.2 | 0.00 | 0.00 | 0.00 | 61 | 1020.2 |
| 20260830195622 | 23 | 204 | 3.2 | 3.2 | 0.00 | 0.00 | 0.00 | 61 | 1020.3 |
| 20260830195521 | 23 | 181 | 3.2 | 6.4 | 0.00 | 0.00 | 0.00 | 61 | 1020.3 |
| 20260830194521 | 23 | 247 | 0.0 | 0.0 | 0.00 | 0.00 | 0.00 | 61 | 1020.6 |
| 20260830193522 | 23 | 184 | 1.6 | 8.0 | 0.00 | 0.00 | 0.00 | 61 | 1020.6 |
| 20260830192522 | 23 | 232 | 3.2 | 6.4 | 0.00 | 0.00 | 0.00 | 60 | 1020.7 |
| 20260830191520 | 23 | 252 | 1.6 | 3.2 | 0.00 | 0.00 | 0.00 | 57 | 1020.8 |
| 20260830190523 | 23 | 233 | 6.4 | 11.3 | 0.00 | 0.00 | 0.00 | 56 | 1021.0 |
| 20260830190421 | 23 | 251 | 8.0 | 11.3 | 0.00 | 0.00 | 0.00 | 57 | 1021.0 |
| 20260830185422 | 23 | 260 | 6.4 | 8.0 | 0.00 | 0.00 | 0.00 | 56 | 1021.0 |
| 20260830184421 | 23 | 247 | 1.6 | 4.8 | 0.00 | 0.00 | 0.00 | 53 | 1021.1 |
| 20260830183422 | 24 | 300 | 4.8 | 8.0 | 0.00 | 0.00 | 0.00 | 52 | 1021.0 |
| 20260830182521 | 24 | 291 | 3.2 | 6.4 | 0.00 | 0.00 | 0.00 | 51 | 1021.1 |
| 20260830180622 | 24 | 279 | 9.7 | 14.5 | 0.00 | 0.00 | 0.00 | 53 | 1021.3 |
| 20260830175621 | 24 | 297 | 4.8 | 11.3 | 0.00 | 0.00 | 0.00 | 54 | 1021.4 |
| 20260830172624 | 24 | 287 | 4.8 | 12.9 | 0.00 | 0.00 | 0.00 | 53 | 1021.7 |
| 20260830171720 | 24 | 249 | 9.7 | 16.1 | 0.00 | 0.00 | 0.00 | 55 | 1021.8 |
| 20260830170721 | 23 | 210 | 4.8 | 8.0 | 0.00 | 0.00 | 0.00 | 56 | 1022.0 |
| 20260830170622 | 23 | 266 | 6.4 | 11.3 | 0.00 | 0.00 | 0.00 | 56 | 1022.0 |
| 20260830164721 | 23 | 201 | 3.2 | 4.8 | 0.00 | 0.00 | 0.00 | 58 | 1022.1 |
| 20260830163722 | 22 | 282 | 4.8 | 8.0 | 0.00 | 0.00 | 0.00 | 59 | 1022.3 |
| 20260830163622 | 22 | 285 | 4.8 | 11.3 | 0.00 | 0.00 | 0.00 | 59 | 1022.2 |
| 20260830162622 | 22 | 246 | 4.8 | 12.9 | 0.00 | 0.00 | 0.00 | 60 | 1022.4 |
| 20260830162523 | 22 | 249 | 9.7 | 14.5 | 0.00 | 0.00 | 0.00 | 59 | 1022.4 |
| 20260830161620 | 22 | 265 | 4.8 | 9.7 | 0.00 | 0.00 | 0.00 | 61 | 1022.6 |
| 20260830160622 | 22 | 226 | 1.6 | 4.8 | 0.00 | 0.00 | 0.00 | 65 | 1022.7 |
| 20260830160523 | 22 | 249 | 4.8 | 8.0 | 0.00 | 0.00 | 0.00 | 66 | 1022.8 |
| 20260830155522 | 21 | 240 | 4.8 | 9.7 | 0.00 | 0.00 | 0.00 | 69 | 1022.8 |
| 20260830154520 | 20 | 223 | 4.8 | 11.3 | 0.00 | 0.00 | 0.00 | 69 | 1022.9 |
| 20260830153537 | 20 | 240 | 3.2 | 9.7 | 0.00 | 0.00 | 0.00 | 70 | 1023.2 |
| 20260830153421 | 20 | 247 | 3.2 | 4.8 | 0.00 | 0.00 | 0.00 | 70 | 1023.1 |
| 20260830152420 | 20 | 252 | 4.8 | 6.4 | 0.00 | 0.00 | 0.00 | 68 | 1022.9 |
| 20260830150521 | 20 | 273 | 3.2 | 6.4 | 0.00 | 0.00 | 0.00 | 67 | 1023.3 |
| 20260830145522 | 20 | 275 | 3.2 | 6.4 | 0.00 | 0.00 | 0.00 | 67 | 1023.3 |
| 20260830145435 | 20 | 255 | 9.7 | 16.1 | 0.00 | 0.00 | 0.00 | 68 | 1023.3 |
| 20260830144522 | 20 | 259 | 6.4 | 12.9 | 0.00 | 0.00 | 0.00 | 69 | 1023.3 |
| 20260830143619 | 20 | 292 | 0.0 | 6.4 | 0.00 | 0.00 | 0.00 | 69 | 1023.3 |
| 20260830142719 | 20 | 239 | 3.2 | 4.8 | 0.00 | 0.00 | 0.00 | 68 | 1023.2 |
| 20260830142620 | 20 | 295 | 3.2 | 8.0 | 0.00 | 0.00 | 0.00 | 67 | 1023.2 |
| 20260830141620 | 20 | 209 | 6.4 | 11.3 | 0.00 | 0.00 | 0.00 | 66 | 1023.3 |
| 20260830140622 | 21 | 245 | 8.0 | 14.5 | 0.00 | 0.00 | 0.00 | 65 | 1023.3 |
| 20260830135623 | 21 | 257 | 3.2 | 9.7 | 0.00 | 0.00 | 0.00 | 67 | 1023.3 |
| 20260830135521 | 20 | 289 | 1.6 | 8.0 | 0.00 | 0.00 | 0.00 | 68 | 1023.3 |
| 20260830133621 | 18 | 223 | 8.0 | 9.7 | 0.00 | 0.00 | 0.00 | 73 | 1023.6 |
| 20260830131621 | 18 | 225 | 0.0 | 0.0 | 0.00 | 0.00 | 0.00 | 75 | 1023.6 |
| 20260830130720 | 18 | 199 | 1.6 | 4.8 | 0.00 | 0.00 | 0.00 | 76 | 1023.5 |
| 20260830130636 | 18 | 157 | 3.2 | 4.8 | 0.00 | 0.00 | 0.00 | 75 | 1023.6 |
| 20260830130519 | 18 | 157 | 1.6 | 3.2 | 0.00 | 0.00 | 0.00 | 75 | 1023.7 |
| 20260830125522 | 18 | 138 | 6.4 | 11.3 | 0.00 | 0.00 | 0.00 | 77 | 1023.7 |
| 20260830124522 | 18 | 135 | 4.8 | 11.3 | 0.00 | 0.00 | 0.00 | 78 | 1023.8 |
| 20260830123521 | 17 | 176 | 3.2 | 6.4 | 0.00 | 0.00 | 0.00 | 80 | 1024.0 |
| 20260830120520 | 16 | 135 | 6.4 | 9.7 | 0.00 | 0.00 | 0.00 | 86 | 1024.2 |
| 20260830115619 | 15 | 153 | 4.8 | 6.4 | 0.00 | 0.00 | 0.00 | 87 | 1024.3 |
| 20260830114621 | 15 | 174 | 1.6 | 4.8 | 0.00 | 0.00 | 0.00 | 88 | 1024.2 |
| 20260830113620 | 14 | 306 | 0.0 | 0.0 | 0.00 | 0.00 | 0.00 | 89 | 1024.3 |
| 20260830113520 | 14 | 315 | 0.0 | 0.0 | 0.00 | 0.00 | 0.00 | 89 | 1024.3 |
| 20260830112519 | 13 | 315 | 0.0 | 0.0 | 0.00 | 0.00 | 0.00 | 89 | 1024.4 |
| 20260830111522 | 13 | 292 | 0.0 | 0.0 | 0.00 | 0.00 | 0.00 | 89 | 1024.4 |
| 20260830104720 | 13 | 292 | 0.0 | 0.0 | 0.00 | 0.00 | 0.00 | 89 | 1024.3 |
| 20260830103722 | 13 | 292 | 0.0 | 1.6 | 0.00 | 0.00 | 0.00 | 89 | 1024.1 |
| 20260830103636 | 13 | 292 | 0.0 | 0.0 | 0.00 | 0.00 | 0.00 | 88 | 1024.1 |
| 20260830102621 | 13 | 165 | 0.0 | 3.2 | 0.00 | 0.00 | 0.00 | 87 | 1024.2 |
| 20260830101720 | 13 | 225 | 0.0 | 0.0 | 0.00 | 0.00 | 0.00 | 87 | 1024.4 |
| 20260830100722 | 14 | 179 | 0.0 | 1.6 | 0.00 | 0.00 | 0.00 | 87 | 1024.2 |
| 20260830095820 | 13 | 156 | 4.8 | 8.0 | 0.00 | 0.00 | 0.00 | 88 | 1024.4 |
| 20260830095722 | 13 | 201 | 1.6 | 6.4 | 0.00 | 0.00 | 0.00 | 87 | 1024.3 |
| 20260830094721 | 13 | 135 | 0.0 | 0.0 | 0.00 | 0.00 | 0.00 | 87 | 1024.3 |
| 20260830093720 | 13 | 157 | 0.0 | 0.0 | 0.00 | 0.00 | 0.00 | 89 | 1024.5 |